| time (UTC) | temp F | wind direction | speed knots | gust knots | rain 1hr in | rain 24hr in | rain mn in | humidity % | barometer mb |
| 20260906221805 | 90 | 155 | 11.3 | 20.0 | 0.00 | 0.00 | 0.00 | 52 | 1010.7 |
| 20260906221305 | 90 | 168 | 11.3 | 20.9 | 0.00 | 0.00 | 0.00 | 51 | 1010.7 |
| 20260906220304 | 94 | 149 | 7.0 | 13.9 | 0.00 | 0.00 | 0.00 | 41 | 1010.9 |
| 20260906214305 | 94 | 154 | 1.7 | 4.3 | 0.00 | 0.00 | 0.00 | 40 | 1010.9 |
| 20260906213804 | 94 | 157 | 4.3 | 10.4 | 0.00 | 0.00 | 0.00 | 41 | 1010.9 |
| 20260906213305 | 95 | 199 | 2.6 | 10.4 | 0.00 | 0.00 | 0.00 | 40 | 1010.9 |
| 20260906211804 | 96 | 180 | 3.5 | 11.3 | 0.00 | 0.00 | 0.00 | 40 | 1011.1 |
| 20260906210304 | 96 | 185 | 4.3 | 11.3 | 0.00 | 0.00 | 0.00 | 40 | 1011.2 |
| 20260906204805 | 97 | 146 | 4.3 | 8.7 | 0.00 | 0.00 | 0.00 | 39 | 1011.4 |
| 20260906204305 | 97 | 326 | 5.2 | 10.4 | 0.00 | 0.00 | 0.00 | 40 | 1011.5 |
| 20260906203805 | 96 | 211 | 4.3 | 7.8 | 0.00 | 0.00 | 0.00 | 42 | 1011.6 |
| 20260906203304 | 95 | 206 | 3.5 | 11.3 | 0.00 | 0.00 | 0.00 | 43 | 1011.7 |
| 20260906201805 | 95 | 181 | 3.5 | 7.8 | 0.00 | 0.00 | 0.00 | 44 | 1011.7 |
| 20260906201304 | 95 | 217 | 4.3 | 8.7 | 0.00 | 0.00 | 0.00 | 45 | 1011.8 |
| 20260906200805 | 95 | 190 | 3.5 | 10.4 | 0.00 | 0.00 | 0.00 | 45 | 1011.9 |
| 20260906200304 | 95 | 216 | 3.5 | 7.8 | 0.00 | 0.00 | 0.00 | 45 | 1012.0 |
| 20260906194805 | 93 | 211 | 3.5 | 7.0 | 0.00 | 0.00 | 0.00 | 47 | 1012.2 |
| 20260906194304 | 93 | 200 | 1.7 | 5.2 | 0.00 | 0.00 | 0.00 | 48 | 1012.3 |
| 20260906193805 | 93 | 176 | 4.3 | 8.7 | 0.00 | 0.00 | 0.00 | 47 | 1012.3 |
| 20260906193305 | 93 | 142 | 3.5 | 11.3 | 0.00 | 0.00 | 0.00 | 47 | 1012.3 |
| 20260906191805 | 94 | 313 | 2.6 | 4.3 | 0.00 | 0.00 | 0.00 | 44 | 1012.4 |
| 20260906191304 | 94 | 64 | 0.9 | 2.6 | 0.00 | 0.00 | 0.00 | 45 | 1012.5 |
| 20260906190304 | 93 | 327 | 1.7 | 4.3 | 0.00 | 0.00 | 0.00 | 45 | 1012.6 |
| 20260906184804 | 93 | 310 | 1.7 | 2.6 | 0.00 | 0.00 | 0.00 | 46 | 1012.8 |
| 20260906183805 | 93 | 315 | 2.6 | 5.2 | 0.00 | 0.00 | 0.00 | 45 | 1012.8 |
| 20260906183304 | 94 | 344 | 3.5 | 7.8 | 0.00 | 0.00 | 0.00 | 44 | 1012.8 |
| 20260906181804 | 93 | 322 | 2.6 | 5.2 | 0.00 | 0.00 | 0.00 | 46 | 1013.0 |
| 20260906180804 | 92 | 171 | 0.9 | 5.2 | 0.00 | 0.00 | 0.00 | 48 | 1013.2 |
| 20260906180304 | 92 | 329 | 1.7 | 11.3 | 0.00 | 0.00 | 0.00 | 48 | 1013.4 |
| 20260906174805 | 92 | 351 | 4.3 | 8.7 | 0.00 | 0.00 | 0.00 | 48 | 1013.6 |
| 20260906174305 | 92 | 299 | 0.9 | 4.3 | 0.00 | 0.00 | 0.00 | 50 | 1013.7 |
| 20260906173804 | 92 | 211 | 0.9 | 2.6 | 0.00 | 0.00 | 0.00 | 50 | 1013.8 |
| 20260906173304 | 92 | 298 | 1.7 | 7.0 | 0.00 | 0.00 | 0.00 | 50 | 1013.8 |
| 20260906171804 | 91 | 298 | 4.3 | 7.8 | 0.00 | 0.00 | 0.00 | 48 | 1014.1 |
| 20260906170805 | 91 | 284 | 2.6 | 5.2 | 0.00 | 0.00 | 0.00 | 52 | 1014.3 |
| 20260906170304 | 90 | 10 | 1.7 | 5.2 | 0.00 | 0.00 | 0.00 | 55 | 1014.4 |
| 20260906164804 | 88 | 323 | 1.7 | 7.0 | 0.00 | 0.00 | 0.00 | 58 | 1014.4 |
| 20260906164304 | 87 | 344 | 3.5 | 5.2 | 0.00 | 0.00 | 0.00 | 59 | 1014.5 |
| 20260906163804 | 87 | 342 | 1.7 | 2.6 | 0.00 | 0.00 | 0.00 | 61 | 1014.6 |
| 20260906161804 | 84 | 86 | 3.5 | 7.0 | 0.00 | 0.00 | 0.00 | 65 | 1014.6 |
| 20260906161304 | 84 | 121 | 4.3 | 10.4 | 0.00 | 0.00 | 0.00 | 65 | 1014.5 |
| 20260906160304 | 84 | 142 | 5.2 | 10.4 | 0.00 | 0.00 | 0.00 | 65 | 1014.5 |
| 20260906154304 | 84 | 161 | 4.3 | 7.8 | 0.00 | 0.00 | 0.00 | 65 | 1014.4 |
| 20260906153804 | 85 | 175 | 2.6 | 7.0 | 0.00 | 0.00 | 0.00 | 64 | 1014.3 |
| 20260906153304 | 86 | 160 | 5.2 | 7.8 | 0.00 | 0.00 | 0.00 | 63 | 1014.3 |
| 20260906151304 | 85 | 174 | 4.3 | 7.0 | 0.00 | 0.00 | 0.00 | 64 | 1014.0 |
| 20260906150804 | 85 | 124 | 1.7 | 7.8 | 0.00 | 0.00 | 0.00 | 65 | 1014.0 |
| 20260906150305 | 84 | 302 | 1.7 | 7.8 | 0.00 | 0.00 | 0.00 | 66 | 1014.0 |
| 20260906144804 | 83 | 151 | 4.3 | 8.7 | 0.00 | 0.00 | 0.00 | 68 | 1013.9 |
| 20260906143805 | 82 | 131 | 4.3 | 10.4 | 0.00 | 0.00 | 0.00 | 70 | 1013.9 |
| 20260906143304 | 82 | 157 | 4.3 | 8.7 | 0.00 | 0.00 | 0.00 | 71 | 1014.0 |
| 20260906141804 | 80 | 157 | 5.2 | 10.4 | 0.00 | 0.00 | 0.00 | 73 | 1013.8 |
| 20260906141304 | 80 | 140 | 4.3 | 10.4 | 0.00 | 0.00 | 0.00 | 74 | 1013.8 |
| 20260906140304 | 80 | 149 | 5.2 | 12.2 | 0.00 | 0.00 | 0.00 | 74 | 1013.7 |
| 20260906134804 | 79 | 79 | 2.6 | 4.3 | 0.00 | 0.00 | 0.00 | 75 | 1013.6 |
| 20260906134304 | 79 | 113 | 2.6 | 5.2 | 0.00 | 0.00 | 0.00 | 75 | 1013.5 |
| 20260906133804 | 79 | 120 | 3.5 | 7.0 | 0.00 | 0.00 | 0.00 | 75 | 1013.5 |
| 20260906131804 | 78 | 188 | 0.0 | 0.0 | 0.00 | 0.00 | 0.00 | 76 | 1013.2 |
| 20260906131304 | 78 | 188 | 0.0 | 1.7 | 0.00 | 0.00 | 0.00 | 75 | 1013.2 |
| 20260906130804 | 78 | 188 | 0.0 | 0.9 | 0.00 | 0.00 | 0.00 | 76 | 1013.1 |
| 20260906130304 | 77 | 188 | 0.0 | 0.9 | 0.00 | 0.00 | 0.00 | 75 | 1013.1 |
| 20260906124804 | 77 | 188 | 0.0 | 0.9 | 0.00 | 0.00 | 0.00 | 75 | 1013.0 |
| 20260906123305 | 77 | 188 | 0.0 | 0.0 | 0.00 | 0.00 | 0.00 | 76 | 1012.8 |
| 20260906121804 | 77 | 188 | 0.0 | 0.9 | 0.00 | 0.00 | 0.00 | 76 | 1012.5 |
| 20260906121305 | 77 | 188 | 0.0 | 0.0 | 0.00 | 0.00 | 0.00 | 76 | 1012.4 |
| 20260906120804 | 77 | 188 | 0.0 | 0.0 | 0.00 | 0.00 | 0.00 | 75 | 1012.4 |
| 20260906120304 | 77 | 188 | 0.0 | 0.0 | 0.00 | 0.00 | 0.00 | 75 | 1012.3 |
| 20260906114804 | 78 | 188 | 0.0 | 0.0 | 0.00 | 0.00 | 0.00 | 75 | 1012.1 |
| 20260906114305 | 78 | 188 | 0.0 | 0.0 | 0.00 | 0.00 | 0.00 | 74 | 1012.0 |
| 20260906111805 | 78 | 188 | 0.0 | 0.0 | 0.00 | 0.00 | 0.00 | 74 | 1011.5 |
| 20260906111304 | 78 | 188 | 0.0 | 0.0 | 0.00 | 0.00 | 0.00 | 74 | 1011.4 |
| 20260906110804 | 78 | 188 | 0.0 | 0.0 | 0.00 | 0.00 | 0.00 | 74 | 1011.5 |
| 20260906110305 | 78 | 188 | 0.0 | 0.0 | 0.00 | 0.00 | 0.00 | 74 | 1011.4 |
| 20260906104805 | 78 | 188 | 0.0 | 0.0 | 0.00 | 0.00 | 0.00 | 73 | 1011.5 |
| 20260906104304 | 78 | 188 | 0.0 | 2.6 | 0.00 | 0.00 | 0.00 | 74 | 1011.5 |
| 20260906103804 | 78 | 188 | 0.0 | 2.6 | 0.00 | 0.00 | 0.00 | 73 | 1011.5 |
| 20260906103304 | 79 | 188 | 0.0 | 0.9 | 0.00 | 0.00 | 0.00 | 73 | 1011.5 |
| 20260906101304 | 79 | 188 | 0.0 | 0.9 | 0.00 | 0.00 | 0.00 | 72 | 1011.3 |
| 20260906100804 | 79 | 188 | 0.9 | 1.7 | 0.00 | 0.00 | 0.00 | 72 | 1011.3 |
| 20260906094805 | 79 | 188 | 0.9 | 1.7 | 0.00 | 0.00 | 0.00 | 72 | 1011.5 |
| 20260906094304 | 80 | 188 | 0.9 | 2.6 | 0.00 | 0.00 | 0.00 | 71 | 1011.5 |
| 20260906093804 | 80 | 188 | 0.9 | 2.6 | 0.00 | 0.00 | 0.00 | 71 | 1011.6 |
| 20260906093304 | 80 | 188 | 0.9 | 4.3 | 0.00 | 0.00 | 0.00 | 71 | 1011.5 |
| 20260906091805 | 80 | 193 | 1.7 | 5.2 | 0.00 | 0.00 | 0.00 | 70 | 1011.5 |
| 20260906091305 | 80 | 204 | 2.6 | 4.3 | 0.00 | 0.00 | 0.00 | 70 | 1011.5 |
| 20260906090805 | 80 | 180 | 1.7 | 4.3 | 0.00 | 0.00 | 0.00 | 70 | 1011.5 |
| 20260906090304 | 80 | 186 | 1.7 | 4.3 | 0.00 | 0.00 | 0.00 | 70 | 1011.5 |
| 20260906084804 | 81 | 202 | 1.7 | 2.6 | 0.00 | 0.00 | 0.00 | 69 | 1011.4 |
| 20260906084304 | 81 | 202 | 1.7 | 2.6 | 0.00 | 0.00 | 0.00 | 69 | 1011.4 |
| 20260906083804 | 81 | 202 | 1.7 | 7.0 | 0.00 | 0.00 | 0.00 | 69 | 1011.4 |
| 20260906083305 | 81 | 175 | 3.5 | 10.4 | 0.00 | 0.00 | 0.00 | 69 | 1011.5 |
| 20260906081304 | 81 | 177 | 3.5 | 7.8 | 0.00 | 0.00 | 0.00 | 68 | 1011.4 |
| 20260906080804 | 81 | 174 | 1.7 | 4.3 | 0.00 | 0.00 | 0.00 | 68 | 1011.5 |
| 20260906080305 | 82 | 180 | 1.7 | 5.2 | 0.00 | 0.00 | 0.00 | 68 | 1011.6 |
| 20260906073304 | 82 | 175 | 2.6 | 10.4 | 0.00 | 0.00 | 0.00 | 68 | 1011.8 |
| 20260906071805 | 82 | 174 | 3.5 | 7.8 | 0.00 | 0.00 | 0.00 | 67 | 1012.1 |
| 20260906071304 | 82 | 185 | 5.2 | 7.8 | 0.00 | 0.00 | 0.00 | 67 | 1012.2 |
| 20260906070304 | 83 | 166 | 4.3 | 8.7 | 0.00 | 0.00 | 0.00 | 67 | 1012.2 |
| 20260906064804 | 83 | 164 | 5.2 | 10.4 | 0.00 | 0.00 | 0.00 | 67 | 1012.4 |
| 20260906064304 | 83 | 161 | 4.3 | 10.4 | 0.00 | 0.00 | 0.00 | 67 | 1012.3 |
| 20260906063805 | 83 | 164 | 6.1 | 12.2 | 0.00 | 0.00 | 0.00 | 67 | 1012.3 |
| 20260906063304 | 83 | 171 | 5.2 | 11.3 | 0.00 | 0.00 | 0.00 | 66 | 1012.4 |
| 20260906061804 | 83 | 163 | 5.2 | 11.3 | 0.00 | 0.00 | 0.00 | 66 | 1012.5 |
| 20260906061304 | 83 | 176 | 4.3 | 7.8 | 0.00 | 0.00 | 0.00 | 66 | 1012.5 |
| 20260906060804 | 83 | 166 | 4.3 | 10.4 | 0.00 | 0.00 | 0.00 | 65 | 1012.6 |
| 20260906060304 | 84 | 159 | 4.3 | 12.2 | 0.00 | 0.00 | 0.00 | 65 | 1012.6 |
| 20260906054804 | 84 | 190 | 4.3 | 7.0 | 0.00 | 0.00 | 0.00 | 65 | 1012.5 |
| 20260906054304 | 84 | 168 | 4.3 | 7.8 | 0.00 | 0.00 | 0.00 | 65 | 1012.4 |
| 20260906053804 | 84 | 163 | 4.3 | 10.4 | 0.00 | 0.00 | 0.00 | 65 | 1012.4 |
| 20260906053304 | 84 | 159 | 5.2 | 8.7 | 0.00 | 0.00 | 0.00 | 65 | 1012.4 |
| 20260906051805 | 84 | 163 | 5.2 | 12.2 | 0.00 | 0.00 | 0.00 | 64 | 1012.5 |
| 20260906050804 | 84 | 170 | 5.2 | 7.8 | 0.00 | 0.00 | 0.00 | 64 | 1012.6 |
| 20260906050305 | 85 | 157 | 6.1 | 11.3 | 0.00 | 0.00 | 0.00 | 63 | 1012.6 |
| 20260906044804 | 85 | 175 | 7.0 | 13.9 | 0.00 | 0.00 | 0.00 | 62 | 1012.5 |
| 20260906044304 | 85 | 163 | 9.6 | 15.6 | 0.00 | 0.00 | 0.00 | 62 | 1012.5 |
| 20260906043804 | 85 | 158 | 8.7 | 17.4 | 0.00 | 0.00 | 0.00 | 62 | 1012.5 |
| 20260906043304 | 86 | 166 | 6.1 | 17.4 | 0.00 | 0.00 | 0.00 | 61 | 1012.6 |
| 20260906041804 | 86 | 166 | 9.6 | 13.0 | 0.00 | 0.00 | 0.00 | 60 | 1012.5 |
| 20260906041304 | 86 | 162 | 8.7 | 18.2 | 0.00 | 0.00 | 0.00 | 59 | 1012.4 |
| 20260906040804 | 86 | 165 | 8.7 | 15.6 | 0.00 | 0.00 | 0.00 | 58 | 1012.4 |
| 20260906040304 | 86 | 159 | 7.8 | 18.2 | 0.00 | 0.00 | 0.00 | 58 | 1012.4 |
| 20260906034804 | 87 | 156 | 8.7 | 13.9 | 0.00 | 0.00 | 0.00 | 56 | 1012.3 |
| 20260906033804 | 87 | 127 | 9.6 | 13.9 | 0.00 | 0.00 | 0.00 | 55 | 1012.3 |
| 20260906033304 | 87 | 135 | 7.8 | 15.6 | 0.00 | 0.00 | 0.00 | 55 | 1012.3 |
| 20260906031804 | 88 | 106 | 6.1 | 14.8 | 0.00 | 0.00 | 0.00 | 54 | 1012.1 |
| 20260906031304 | 88 | 112 | 7.8 | 12.2 | 0.00 | 0.00 | 0.00 | 53 | 1012.1 |
| 20260906030804 | 88 | 123 | 6.1 | 10.4 | 0.00 | 0.00 | 0.00 | 53 | 1012.0 |
| 20260906030304 | 88 | 154 | 6.1 | 14.8 | 0.00 | 0.00 | 0.00 | 53 | 1011.8 |
| 20260906024304 | 89 | 125 | 8.7 | 14.8 | 0.00 | 0.00 | 0.00 | 52 | 1011.4 |
| 20260906023804 | 89 | 124 | 9.6 | 13.9 | 0.00 | 0.00 | 0.00 | 52 | 1011.3 |
| 20260906023304 | 89 | 145 | 7.8 | 17.4 | 0.00 | 0.00 | 0.00 | 51 | 1011.1 |
| 20260906021804 | 90 | 131 | 7.8 | 12.2 | 0.00 | 0.00 | 0.00 | 50 | 1010.8 |
| 20260906021304 | 90 | 128 | 8.7 | 13.0 | 0.00 | 0.00 | 0.00 | 50 | 1010.7 |
| 20260906020804 | 90 | 139 | 8.7 | 14.8 | 0.00 | 0.00 | 0.00 | 49 | 1010.7 |
| 20260906014804 | 91 | 136 | 12.2 | 15.6 | 0.00 | 0.00 | 0.00 | 47 | 1010.4 |
| 20260906013804 | 92 | 136 | 13.0 | 18.2 | 0.00 | 0.00 | 0.00 | 45 | 1010.2 |
| 20260906011804 | 93 | 155 | 7.8 | 13.9 | 0.00 | 0.00 | 0.00 | 40 | 1010.1 |
| 20260906010804 | 93 | 129 | 5.2 | 10.4 | 0.00 | 0.00 | 0.00 | 39 | 1009.9 |
| 20260906010305 | 93 | 126 | 6.1 | 11.3 | 0.00 | 0.00 | 0.00 | 39 | 1009.9 |
| 20260906004805 | 94 | 126 | 8.7 | 13.9 | 0.00 | 0.00 | 0.00 | 37 | 1010.0 |
| 20260906004304 | 94 | 123 | 4.3 | 7.8 | 0.00 | 0.00 | 0.00 | 37 | 1009.8 |
| 20260906003804 | 94 | 137 | 6.1 | 10.4 | 0.00 | 0.00 | 0.00 | 37 | 1009.9 |
| 20260906003304 | 95 | 103 | 4.3 | 11.3 | 0.00 | 0.00 | 0.00 | 37 | 1009.9 |
| 20260906001804 | 95 | 129 | 7.8 | 12.2 | 0.00 | 0.00 | 0.00 | 36 | 1010.0 |
| 20260906000804 | 95 | 129 | 4.3 | 8.7 | 0.00 | 0.00 | 0.00 | 35 | 1009.8 |
| 20260906000304 | 95 | 121 | 3.5 | 8.7 | 0.00 | 0.00 | 0.00 | 35 | 1009.8 |
| 20260905234804 | 96 | 153 | 5.2 | 13.0 | 0.00 | 0.00 | 0.00 | 34 | 1009.7 |
| 20260905233804 | 96 | 158 | 7.0 | 11.3 | 0.00 | 0.00 | 0.00 | 33 | 1009.7 |
| 20260905233304 | 96 | 142 | 2.6 | 7.8 | 0.00 | 0.00 | 0.00 | 33 | 1009.7 |
| 20260905231804 | 96 | 161 | 5.2 | 12.2 | 0.00 | 0.00 | 0.00 | 33 | 1009.8 |
| 20260905231305 | 96 | 217 | 1.7 | 7.0 | 0.00 | 0.00 | 0.00 | 33 | 1009.8 |
| 20260905230804 | 96 | 145 | 6.1 | 11.3 | 0.00 | 0.00 | 0.00 | 34 | 1009.8 |
| 20260905230304 | 96 | 133 | 7.8 | 14.8 | 0.00 | 0.00 | 0.00 | 33 | 1009.8 |
| 20260905224804 | 97 | 164 | 4.3 | 8.7 | 0.00 | 0.00 | 0.00 | 33 | 1009.8 |
| 20260905224304 | 97 | 182 | 4.3 | 11.3 | 0.00 | 0.00 | 0.00 | 33 | 1009.7 |
| 20260905223804 | 97 | 154 | 7.8 | 11.3 | 0.00 | 0.00 | 0.00 | 32 | 1009.6 |
| 20260905223305 | 97 | 124 | 4.3 | 12.2 | 0.00 | 0.00 | 0.00 | 33 | 1009.7 |